Location: ????????
(38.4362°N, 22.8767°E)
Time: 03:08:44
(UTC+00:00)

ATLAS 5 CENTAUR R/B - Visible Passes

Search period start: 19 July 2024 00:00
Search period end: 29 July 2024 00:00
Orbit: 263 x 11767 km, 20.2° (Epoch: 18 July)

Date Brightness Start Highest point End Pass type
(mag) Time Alt. Az. Time Alt. Az. Time Alt. Az.
19 Jul 7.4 19:52:14 10° SW 20:30:33 14° SSW 21:15:37 10° S visible
20 Jul 7.4 18:19:21 10° WSW 18:58:09 20° SSW 20:04:04 10° SSE visible
21 Jul 7.4 16:59:32 10° WSW 17:30:09 24° SSW 18:41:59 10° SSE visible
23 Jul 7.4 18:59:10 10° SW 19:37:00 15° SSW 20:29:25 10° S visible
24 Jul 7.5 17:32:02 10° SW 18:04:35 20° SSW 19:08:53 10° SSE visible
26 Jul 7.4 19:50:22 10° SW 20:19:51 12° SSW 20:51:25 10° S visible
27 Jul 7.5 18:06:54 10° SW 18:40:18 15° SSW 19:34:18 10° SSE visible
28 Jul 7.3 16:43:18 10° SW 17:08:53 18° S 18:04:56 10° SSE visible
